Location: Unspecified
(0.0000°N, 0.0000°E)
Time: 11:26:55
(UTC+01:00)

NOSS 3-3 (A) - Visible Passes

Search period start: 01 November 2014 00:00
Search period end: 11 November 2014 00:00
Orbit: 969 x 1244 km, 63.4° (Epoch: 19 October)

Date Brightness Start Highest point End Pass type
(mag) Time Alt. Az. Time Alt. Az. Time Alt. Az.
01 Nov 5.8 04:48:50 10° S 04:54:16 30° ESE 04:59:39 10° NE visible
02 Nov 6.7 04:06:17 10° SSE 04:09:39 15° ESE 04:13:00 10° E visible
02 Nov 4.2 05:54:16 10° SW 06:00:17 47° WNW 06:06:19 10° N visible
03 Nov 3.9 05:09:24 10° SSW 05:15:45 89° ESE 05:22:05 10° NNE visible
04 Nov 4.9 04:25:11 10° S 04:31:13 45° ESE 04:37:11 10° NE visible
04 Nov 5.4 06:18:22 10° W 06:21:50 15° WNW 06:25:20 10° NNW visible
05 Nov 6.0 03:41:46 10° SSE 03:46:38 23° ESE 03:51:27 10° ENE visible
05 Nov 4.6 05:31:47 10° SW 05:37:14 31° WNW 05:42:42 10° N visible
06 Nov 4.2 04:54:07 49° NNW 04:54:07 49° NNW 04:58:54 10° NNE visible
07 Nov 6.3 04:14:00 12° NNE 04:14:00 12° NNE 04:14:25 10° NNE visible
